Hourly Data Report for October 09, 2013

All times are specified in Local Standard Time (LST). Add 1 hour to adjust for Daylight Saving Time where and when it is observed.

FORT LIARD
NORTHWEST TERRITORIES

60°14'00.000" N
123°28'00.000" W
213.40 m
2201579
71497
WJL

Download Data

Hourly Data (October 2013)
Hourly Data Report for October 9, 2013
Temp Definition
°C
Dew Point Temp Definition
°C
Rel Hum Definition
%
Wind Dir Definition
10's deg

Wind Spd Definition
km/h
Visibility Definition
km
Stn Press Definition
kPa
Hmdx Definition


Wind Chill Definition


Weather Definition


TIME
00:00 1.7 1.2 96   0   98.13     LegendNANA
01:00 2.3 1.6 95   0   97.98     LegendNANA
02:00 1.9 1.2 95   0   97.86     LegendNANA
03:00 2.9 2.0 94 23 2   97.75     LegendNANA
04:00 2.7 1.8 94 19 6   97.53     LegendNANA
05:00 3.4 1.4 87 20 7   97.42     LegendNANA
06:00 3.3 1.2 86 20 6   97.27     LegendNANA
07:00 3.4 1.3 86 23 7   97.11     LegendNANA
08:00 3.7 0.8 81 23 11   96.96     LegendNANA
09:00 3.5 1.3 85 24 11   96.87     LegendNANA
10:00 3.7 2.0 89 23 11   96.73     LegendNANA
11:00 3.6 2.2 91 24 4   96.54     LegendNANA
12:00 3.2 1.9 91 24 11   96.45     LegendNANA
13:00 4.1 2.6 90 25 9   96.37     LegendNANA
14:00 5.1 3.1 87 20 7   96.30     LegendNANA
15:00 7.2 3.6 78 20 7   96.19     LegendNANA
16:00 7.9 3.5 74 22 13   96.13     LegendNANA
17:00 6.9 3.1 77 24 13   96.23     LegendNANA
18:00 7.1 2.5 73 23 15   96.25     LegendNANA
19:00 6.9 2.4 73 24 17   96.27     LegendNANA
20:00 4.5 1.3 80 21 6   96.29     LegendNANA
21:00 5.6 0.4 69 21 15   96.30     LegendNANA
22:00 7.6 -0.6 56 22 26   96.29     LegendNANA
23:00 7.1 0.0 61 22 26   96.32     LegendNANA

Notes on Data Quality.

Legend

  • E = Estimated
  • M = Missing
  • NA = Not Available
  • ‡ = Partner data that is not subject to review by the National Climate Archives
Date modified: